| time (UTC) | temp F | wind direction | speed knots | gust knots | rain 1hr in | rain 24hr in | rain mn in | humidity % | barometer mb |
| 20260506150020 | 76 | 71 | 0.0 | 3.5 | 0.00 | 0.00 | 0.00 | 87 | 1011.6 |
| 20260506144522 | 76 | 53 | 0.9 | 1.7 | 0.00 | 0.00 | 0.00 | 87 | 1011.3 |
| 20260506143013 | 76 | 98 | 1.7 | 3.5 | 0.00 | 0.00 | 0.00 | 87 | 1011.0 |
| 20260506141511 | 75 | 16 | 0.9 | 2.6 | 0.00 | 0.00 | 0.00 | 89 | 1010.8 |
| 20260506140022 | 75 | 44 | 0.0 | 1.7 | 0.00 | 0.00 | 0.00 | 89 | 1011.3 |
| 20260506134520 | 75 | 84 | 0.0 | 3.5 | 0.00 | 0.00 | 0.00 | 90 | 1010.2 |
| 20260506133026 | 74 | 76 | 1.7 | 3.5 | 0.00 | 0.00 | 0.00 | 91 | 1010.2 |
| 20260506131508 | 74 | 10 | 0.9 | 4.3 | 0.00 | 0.00 | 0.00 | 92 | 1010.3 |
| 20260506130016 | 73 | 66 | 0.9 | 5.2 | 0.00 | 0.00 | 0.00 | 92 | 1010.1 |
| 20260506124519 | 73 | 31 | 0.9 | 4.3 | 0.00 | 0.00 | 0.00 | 92 | 1009.9 |
| 20260506123024 | 73 | 46 | 0.0 | 2.6 | 0.00 | 0.00 | 0.00 | 92 | 1009.9 |
| 20260506121528 | 73 | 42 | 0.0 | 1.7 | 0.00 | 0.00 | 0.00 | 92 | 1010.1 |
| 20260506120014 | 73 | 42 | 0.9 | 1.7 | 0.00 | 0.00 | 0.00 | 92 | 1010.0 |
| 20260506114518 | 73 | 26 | 0.0 | 1.7 | 0.00 | 0.00 | 0.00 | 91 | 1009.9 |
| 20260506113025 | 74 | 26 | 0.0 | 1.7 | 0.00 | 0.00 | 0.00 | 90 | 1009.9 |
| 20260506111528 | 74 | 37 | 0.0 | 1.7 | 0.00 | 0.00 | 0.00 | 90 | 1009.9 |
| 20260506110027 | 74 | 78 | 0.0 | 1.7 | 0.00 | 0.00 | 0.00 | 89 | 1009.7 |
| 20260506104515 | 74 | 78 | 0.9 | 5.2 | 0.00 | 0.00 | 0.00 | 89 | 1009.5 |
| 20260506103022 | 74 | 103 | 1.7 | 6.1 | 0.00 | 0.00 | 0.00 | 89 | 1009.3 |
| 20260506101503 | 74 | 87 | 2.6 | 5.2 | 0.00 | 0.00 | 0.00 | 89 | 1009.1 |
| 20260506100011 | 74 | 65 | 2.6 | 6.1 | 0.00 | 0.00 | 0.00 | 89 | 1009.1 |
| 20260506094513 | 74 | 123 | 1.7 | 5.2 | 0.00 | 0.00 | 0.00 | 89 | 1009.0 |
| 20260506093033 | 74 | 96 | 1.7 | 7.0 | 0.00 | 0.00 | 0.00 | 89 | 1008.7 |
| 20260506091505 | 74 | 109 | 2.6 | 7.8 | 0.00 | 0.00 | 0.00 | 88 | 1008.7 |
| 20260506090009 | 74 | 127 | 3.5 | 8.7 | 0.00 | 0.00 | 0.00 | 88 | 1008.5 |
| 20260506084516 | 74 | 109 | 2.6 | 5.2 | 0.00 | 0.00 | 0.00 | 89 | 1008.6 |
| 20260506083019 | 74 | 95 | 2.6 | 7.0 | 0.00 | 0.00 | 0.00 | 89 | 1008.6 |
| 20260506081524 | 74 | 21 | 3.5 | 9.6 | 0.00 | 0.00 | 0.00 | 89 | 1008.6 |
| 20260506073016 | 75 | 72 | 3.5 | 7.8 | 0.00 | 0.00 | 0.00 | 88 | 1009.0 |
| 20260506071519 | 75 | 110 | 2.6 | 11.3 | 0.00 | 0.00 | 0.00 | 88 | 1009.2 |
| 20260506061518 | 75 | 103 | 3.5 | 16.5 | 0.00 | 0.00 | 0.00 | 87 | 1009.2 |
| 20260506044527 | 76 | 98 | 4.3 | 12.2 | 0.00 | 0.00 | 0.00 | 86 | 1009.3 |
| 20260506043008 | 76 | 88 | 1.7 | 6.1 | 0.00 | 0.00 | 0.00 | 86 | 1009.4 |
| 20260506041514 | 76 | 55 | 2.6 | 7.8 | 0.00 | 0.00 | 0.00 | 86 | 1009.1 |
| 20260506040021 | 76 | 80 | 2.6 | 7.0 | 0.00 | 0.00 | 0.00 | 86 | 1009.0 |
| 20260506034524 | 76 | 82 | 1.7 | 7.0 | 0.00 | 0.00 | 0.00 | 85 | 1008.8 |
| 20260506033025 | 76 | 65 | 0.9 | 5.2 | 0.00 | 0.00 | 0.00 | 85 | 1008.7 |
| 20260506031514 | 76 | 54 | 1.7 | 7.0 | 0.00 | 0.00 | 0.00 | 85 | 1008.5 |
| 20260506030018 | 76 | 88 | 0.9 | 5.2 | 0.00 | 0.00 | 0.00 | 84 | 1008.2 |
| 20260506024525 | 76 | 11 | 0.9 | 6.1 | 0.00 | 0.00 | 0.00 | 83 | 1008.2 |
| 20260506023024 | 77 | 126 | 1.7 | 5.2 | 0.00 | 0.00 | 0.00 | 82 | 1007.8 |
| 20260506021526 | 77 | 92 | 1.7 | 5.2 | 0.00 | 0.00 | 0.00 | 82 | 1007.6 |
| 20260506020030 | 77 | 43 | 0.9 | 3.5 | 0.00 | 0.00 | 0.00 | 81 | 1007.1 |
| 20260506014520 | 77 | 63 | 0.9 | 3.5 | 0.00 | 0.00 | 0.00 | 81 | 1007.1 |
| 20260506013024 | 78 | 49 | 0.9 | 2.6 | 0.00 | 0.00 | 0.00 | 80 | 1007.0 |
| 20260506011508 | 78 | 63 | 0.9 | 2.6 | 0.00 | 0.00 | 0.00 | 80 | 1007.1 |
| 20260506010017 | 79 | 65 | 0.0 | 1.7 | 0.00 | 0.00 | 0.00 | 78 | 1007.2 |
| 20260506004524 | 80 | 81 | 0.0 | 1.7 | 0.00 | 0.00 | 0.00 | 76 | 1007.1 |
| 20260506003004 | 81 | 98 | 0.9 | 3.5 | 0.00 | 0.00 | 0.00 | 74 | 1007.0 |
| 20260506001504 | 82 | 92 | 0.0 | 2.6 | 0.00 | 0.00 | 0.00 | 73 | 1007.0 |
| 20260506000012 | 82 | 80 | 1.7 | 6.1 | 0.00 | 0.00 | 0.00 | 72 | 1006.8 |
| 20260505234516 | 82 | 89 | 1.7 | 7.8 | 0.00 | 0.00 | 0.00 | 70 | 1006.7 |
| 20260505233004 | 82 | 104 | 3.5 | 7.8 | 0.00 | 0.00 | 0.00 | 71 | 1006.6 |
| 20260505231507 | 82 | 57 | 2.6 | 10.4 | 0.00 | 0.00 | 0.00 | 70 | 1006.6 |
| 20260505230016 | 83 | 119 | 2.6 | 8.7 | 0.00 | 0.00 | 0.00 | 69 | 1006.4 |
| 20260505224513 | 83 | 44 | 4.3 | 12.2 | 0.00 | 0.00 | 0.00 | 68 | 1006.6 |
| 20260505223017 | 83 | 87 | 3.5 | 10.4 | 0.00 | 0.00 | 0.00 | 68 | 1006.5 |
| 20260505221504 | 84 | 112 | 3.5 | 8.7 | 0.00 | 0.00 | 0.00 | 68 | 1006.4 |
| 20260505220006 | 84 | 80 | 3.5 | 9.6 | 0.00 | 0.00 | 0.00 | 67 | 1006.5 |
| 20260505214511 | 84 | 140 | 4.3 | 11.3 | 0.00 | 0.00 | 0.00 | 67 | 1006.6 |
| 20260505213019 | 85 | 82 | 5.2 | 13.0 | 0.00 | 0.00 | 0.00 | 65 | 1007.0 |
| 20260505211530 | 84 | 103 | 3.5 | 11.3 | 0.00 | 0.00 | 0.00 | 65 | 1007.0 |
| 20260505210003 | 84 | 180 | 1.7 | 12.2 | 0.00 | 0.00 | 0.00 | 65 | 1007.3 |
| 20260505204509 | 84 | 138 | 4.3 | 12.2 | 0.00 | 0.00 | 0.00 | 66 | 1007.5 |
| 20260505203016 | 84 | 136 | 2.6 | 10.4 | 0.00 | 0.00 | 0.00 | 66 | 1007.8 |
| 20260505201521 | 83 | 133 | 5.2 | 12.2 | 0.00 | 0.00 | 0.00 | 66 | 1008.0 |
| 20260505200024 | 83 | 105 | 3.5 | 10.4 | 0.00 | 0.00 | 0.00 | 67 | 1008.0 |
| 20260505194510 | 82 | 106 | 6.1 | 10.4 | 0.00 | 0.00 | 0.00 | 69 | 1008.2 |
| 20260505193012 | 83 | 90 | 5.2 | 10.4 | 0.00 | 0.00 | 0.00 | 67 | 1008.2 |
| 20260505191519 | 82 | 111 | 3.5 | 11.3 | 0.00 | 0.00 | 0.00 | 69 | 1008.5 |
| 20260505190024 | 81 | 88 | 4.3 | 9.6 | 0.00 | 0.00 | 0.00 | 72 | 1008.6 |
| 20260505184530 | 81 | 53 | 2.6 | 12.2 | 0.00 | 0.00 | 0.00 | 71 | 1008.8 |
| 20260505183013 | 80 | 115 | 4.3 | 11.3 | 0.00 | 0.00 | 0.00 | 73 | 1009.1 |
| 20260505181518 | 80 | 115 | 2.6 | 11.3 | 0.00 | 0.00 | 0.00 | 74 | 1009.3 |
| 20260505180021 | 78 | 94 | 3.5 | 9.6 | 0.00 | 0.00 | 0.00 | 76 | 1009.5 |
| 20260505174535 | 78 | 64 | 4.3 | 11.3 | 0.00 | 0.00 | 0.00 | 78 | 1009.6 |
| 20260505173009 | 76 | 41 | 1.7 | 9.6 | 0.00 | 0.00 | 0.00 | 80 | 1009.8 |
| 20260505171518 | 75 | 107 | 5.2 | 10.4 | 0.00 | 0.00 | 0.00 | 82 | 1009.8 |
| 20260505170019 | 74 | 121 | 5.2 | 10.4 | 0.00 | 0.00 | 0.00 | 82 | 1009.9 |
| 20260505164523 | 74 | 60 | 3.5 | 9.6 | 0.00 | 0.00 | 0.00 | 83 | 1009.8 |
| 20260505163025 | 74 | 115 | 2.6 | 7.8 | 0.00 | 0.00 | 0.00 | 84 | 1009.8 |
| 20260505161506 | 72 | 117 | 3.5 | 7.8 | 0.00 | 0.00 | 0.00 | 85 | 1009.9 |
| 20260505153014 | 71 | 69 | 1.7 | 9.6 | 0.00 | 0.00 | 0.00 | 87 | 1009.9 |
| 20260505151507 | 71 | 101 | 4.3 | 10.4 | 0.00 | 0.00 | 0.00 | 88 | 1009.8 |